sat.trackr.live / text

‹ back to catalog

STARLINK-31652

NORAD 59256 · 2024-050C

PAYLOAD ACTIVE UNKNOWN

§ Identity

Operator
Country
US
Launch date
2024-03-19
Launch site
AFWTR
Launch vehicle
Mass (kg)
RCS (m²)

Purposes: comms

External: N2YO · Heavens-Above · Gunter

§ Orbital elements

Epoch: 2026-05-25T03:10:04.406880Z

Period
94.11 min
Inclination
53.1602°
Eccentricity
0.0001382
Mean motion
15.30198619 rev/d
Perigee alt
474.3 km
Apogee alt
476.2 km
Semi-major
6,853.4 km
B*
3.5443e-5
RAAN
185.8308°
Arg perigee
84.6126°
Mean anomaly
275.5032°
Rev number
12,225

§ Raw data

STARLINK-316521 59256U 24050C   26145.13199545  .00000691  00000+0  35443-4 0  99912 59256  53.1602 185.8308 0001382  84.6126 275.5032 15.30198619122259

JSON: /api/v1/satellites/59256 · /tle

For live sub-satellite position, see the globe view (requires WebGL).

§ Visibility from observer

Set your observer location to see the next 7 days of passes ≥ 10°. The values pass through the URL so the page stays shareable.

No JS? Fill the form by hand. The geolocation button needs JavaScript.